Regional Weather Roundup
Issued by NWS Little Rock, AR

Home | Current Version | Previous Version | Graphics & Text | Print | Product List | Glossary On
Versions: 1 2 3 4 5 6 7 8 9 10 11 12 13 14 15 16 17 18 19 20 21 22 23 24 25 26 27 28 29 30 31 32 33 34 35 36 37 38 39 40 41 42 43 44 45 46 47 48 49 50
000
ASUS44 KLZK 061705
RWRLZK

WEATHER ROUNDUP FOR ARKANSAS
NATIONAL WEATHER SERVICE LITTLE ROCK AR
1100 AM CST SAT FEB 06 2016

NOTE: "FAIR" INDICATES FEW OR NO CLOUDS BELOW 12,000 FEET WITH NO
SIGNIFICANT WEATHER AND/OR OBSTRUCTIONS TO VISIBILITY.

ARZ001-003-010-029-061800-
NORTHWEST ARKANSAS

CITY           SKY/WX    TMP DP  RH WIND       PRES   REMARKS
FAYETTEVILLE   SUNNY     48  28  46 W6        30.35S
FORT SMITH     SUNNY     47  19  33 CALM      30.39R
HARRISON       SUNNY     49  24  37 VRB6      30.35R
BENTONVILLE    SUNNY    N/A N/A N/A W7        30.35F
ROGERS         SUNNY     47  27  45 W6        30.35S
SILOAM SPGS    SUNNY     48  25  40 W3        30.36S
HIGHFILL       SUNNY     50  29  44 W10       30.34S
SPRINGDALE     SUNNY     48  25  40 W5        30.36S
$$

ARZ004-005-016-061800-
NORTH CENTRAL ARKANSAS

CITY           SKY/WX    TMP DP  RH WIND       PRES   REMARKS
BATESVILLE     MOSUNNY   52  25  35 W6        30.38S
FLIPPIN        SUNNY     46  23  39 S3        30.35R
MTN HOME       SUNNY     48  18  30 VRB3      30.35R
$$

ARZ040-041-061800-
WEST CENTRAL ARKANSAS

CITY           SKY/WX    TMP DP  RH WIND       PRES   REMARKS
MENA           SUNNY     46  25  42 CALM      30.35S
MOUNT IDA      SUNNY     47  24  40 CALM      30.34R
$$

ARZ009-017-025-026-028-061800-
NORTHEAST ARKANSAS

CITY           SKY/WX    TMP DP  RH WIND       PRES   REMARKS
CORNING        FAIR      48  28  46 SW7       30.38F
JONESBORO      SUNNY     48  26  42 S3        30.38F
NEWPORT        MOSUNNY   50  24  36 S3        30.40S
WALNUT RIDGE   SUNNY     48  25  40 SW8       30.38S
BLYTHEVILLE    SUNNY     53  29  39 SW5       30.39F
$$

ARZ022-023-033-042-044-061800-
CENTRAL ARKANSAS

CITY           SKY/WX    TMP DP  RH WIND       PRES   REMARKS
LITTLE ROCK    MOSUNNY   50  25  37 VRB5      30.39S
N LITTLE ROCK  MOSUNNY   49  25  38 S6        30.39S
JACKSONVILLE   SUNNY     49  23  35 S6        30.37S
SEARCY         MOSUNNY   48  27  44 SW5       30.41R
HOT SPRINGS    SUNNY     49  24  37 CALM      30.37R
RUSSELLVILLE   SUNNY     48  26  42 CALM      30.37S
CLINTON        FAIR      45  25  45 CALM      30.39S
$$

ARZ036-061800-
EAST ARKANSAS

CITY           SKY/WX    TMP DP  RH WIND       PRES   REMARKS
WEST MEMPHIS   MOSUNNY   50  27  40 SW3       30.37F
$$

ARZ050-053-066-070-073-061800-
SOUTHWEST ARKANSAS

CITY           SKY/WX    TMP DP  RH WIND       PRES   REMARKS
ARKADELPHIA    FAIR      49  31  50 CALM      30.39R
CAMDEN         SUNNY     54  27  35 CALM      30.37S
TEXARKANA      PTSUNNY   48  30  49 CALM      30.37R
EL DORADO      MOSUNNY   48  28  46 CALM      30.37R
DE QUEEN       SUNNY     49  26  41 CALM      30.36R
$$

ARZ056-057-069-061800-
SOUTHEAST ARKANSAS

CITY           SKY/WX    TMP DP  RH WIND       PRES   REMARKS
PINE BLUFF     SUNNY     52  28  39 CALM      30.38S
STUTTGART      SUNNY     50  28  43 SE8       30.38S
MONTICELLO     SUNNY     54  20  26 CALM      30.36F

$$





USA.gov is the U.S. government's official web portal to all federal, state and local government web resources and services.